User: anonymous   Login
Location: R�o Medio
(42.4667°N, 3.0167°W)
Time: 18:00:55
(UTC+00:00)
Language:

Meteor 1-11 Rocket - Orbit

View from above orbital plane
View from above orbital plane
View from above satellite
View from above satellite

Ground track
Ground track

The orbit data is extracted from the following two-line orbital elements,

1  5918U 72022B   20151.52728891 -.00000035 +00000-0 -28971-4 0  9998
2  5918 081.2380 002.7093 0058255 175.9460 184.2193 14.05868600469246
Epoch (UTC): 30 May 2020 12:39:17
Eccentricity: 0.0058255
inclination: 81.2380°
perigee height: 831 km
apogee height: 916 km
right ascension of ascending node: 2.7093°
argument of perigee: 175.9460°
revolutions per day: 14.05868600
mean anomaly at epoch: 184.2193°
orbit number at epoch: 46924

The dashed part of the orbit path shows where the satellite is in the earth's shadow,  

DLR